User: anonymous   Login
Location: Unspecified
(0.0000°N, 0.0000°E)
Time: 15:45:08
(UTC+00:00)
Language:

Envisat - Orbit

View from above orbital plane
View from above orbital plane
View from above satellite
View from above satellite

Ground track
Ground track

The orbit data is extracted from the following two-line orbital elements,

1 27386U 02009A   19264.52339135 -.00000007  00000-0  11284-4 0  9998
2 27386  98.1468 280.6854 0001235  87.2007  35.9872 14.37957554919825
Epoch (UTC): 21 September 2019 12:33:41
Eccentricity: 0.0001235
inclination: 98.1468°
perigee height: 764 km
apogee height: 766 km
right ascension of ascending node: 280.6854°
argument of perigee: 87.2007°
revolutions per day: 14.37957554
mean anomaly at epoch: 35.9872°
orbit number at epoch: 91982

The dashed part of the orbit path shows where the satellite is in the earth's shadow,  

DLR